sat.trackr.live / text

‹ back to catalog

STARLINK-31131

NORAD 58673 · 2023-211G

PAYLOAD ACTIVE UNKNOWN

§ Identity

Operator
Country
US
Launch date
2023-12-29
Launch site
AFETR
Launch vehicle
Mass (kg)
RCS (m²)

Purposes: comms

External: N2YO · Heavens-Above · Gunter

§ Orbital elements

Epoch: 2026-09-19T17:29:32.135424Z

Period
94.27 min
Inclination
43.0015°
Eccentricity
0.0001159
Mean motion
15.27576175 rev/d
Perigee alt
482.3 km
Apogee alt
483.9 km
Semi-major
6,861.2 km
B*
2.3446e-5
RAAN
58.6506°
Arg perigee
270.0186°
Mean anomaly
90.0533°
Rev number
15,354

§ Raw data

STARLINK-311311 58673U 23211G   26262.72884416  .00000383  00000+0  23446-4 0  99922 58673  43.0015  58.6506 0001159 270.0186  90.0533 15.27576175153548

JSON: /api/v1/satellites/58673 · /tle

For live sub-satellite position, see the globe view (requires WebGL).

§ Visibility from observer

Set your observer location to see the next 7 days of passes ≥ 10°. The values pass through the URL so the page stays shareable.

No JS? Fill the form by hand. The geolocation button needs JavaScript.